Hourly Data Report for June 30, 2018

TORONTO CITY
ONTARIO
Current Station Operator: ECCC - MSC

43°40'00.000" N
79°24'00.000" W
112.50 m
6158355
71508
XTO

Download Data

Hourly Data (June 2018)
Hourly Data Report for June 30, 2018
TIME
LST
Temp Definition
°C
Dew Point Definition
°C
Rel Hum Definition
%
Precip. Amount Definition
mm

Wind Dir Definition
10's deg

Wind Spd Definition
km/h
Visibility Definition
km
Stn Press Definition
kPa
Hmdx Definition


Wind Chill Definition


Weather Definition


00:00 23.3 16.7 67 0.0 LegendMM LegendMM   100.20 28   LegendNANA
01:00 23.0 17.1 69 0.0 LegendMM LegendMM   100.18 28   LegendNANA
02:00 22.2 16.6 71 0.0 LegendMM LegendMM   100.13 27   LegendNANA
03:00 21.3 17.0 76 0.0 LegendMM LegendMM   100.20 27   LegendNANA
04:00 22.0 17.6 76 0.0 LegendMM LegendMM   100.26 28   LegendNANA
05:00 22.4 18.1 77 0.0 LegendMM LegendMM   100.25 28   LegendNANA
06:00 22.7 18.1 75 0.0 LegendMM LegendMM   100.25 29   LegendNANA
07:00 23.4 18.1 72 0.0 LegendMM LegendMM   100.17 29   LegendNANA
08:00 24.6 18.8 70 0.0 LegendMM LegendMM   100.14 31   LegendNANA
09:00 26.1 19.6 67 0.0 LegendMM LegendMM   100.16 33   LegendNANA
10:00 28.2 20.1 61 0.0 LegendMM LegendMM   100.15 36   LegendNANA
11:00 29.4 21.4 62 0.0 LegendMM LegendMM   100.15 38   LegendNANA
12:00 30.4 22.4 63 0.0 LegendMM LegendMM   100.20 40   LegendNANA
13:00 30.9 22.5 61 0.0 LegendMM LegendMM   100.14 41   LegendNANA
14:00 31.8 22.4 58 0.0 LegendMM LegendMM   100.07 41   LegendNANA
15:00 31.9 21.8 55 0.0 LegendMM LegendMM   100.00 41   LegendNANA
16:00 31.8 21.9 56 0.0 LegendMM LegendMM   100.05 41   LegendNANA
17:00 30.0 22.4 64 0.0 LegendMM LegendMM   100.02 40   LegendNANA
18:00 28.9 21.8 66 0.0 LegendMM LegendMM   99.98 38   LegendNANA
19:00 28.5 21.8 67 0.0 LegendMM LegendMM   99.98 38   LegendNANA
20:00 27.7 20.9 67 0.0 LegendMM LegendMM   99.97 36   LegendNANA
21:00 27.8 20.3 64 0.0 LegendMM LegendMM   100.02 36   LegendNANA
22:00 26.3 20.2 69 0.0 LegendMM LegendMM   100.07 34   LegendNANA
23:00 27.1 18.8 61 0.0 LegendMM LegendMM   100.03 34   LegendNANA

Notes on Data Quality.

Legend

  • E = Estimated
  • M = Missing
  • NA = Not Available*
  • [empty] = Indicates an unobserved value
Date modified: